This is the latest recevied weather packets stored in our database for station/object N9BID. If no packets are shown the sender has not sent any weather packets the latest 10 day(s).
| Time | Temp. | Humidity | Pressure | Rain* | Wind** | Luminosity | Snow |
|---|---|---|---|---|---|---|---|
| 1777859778 | 12.22° C | 54% | 995.9 hPa | 0 mm | - | 0 W/m² | - |
| 1777859474 | 12.78° C | 52% | 996 hPa | 0 mm | - | 0 W/m² | - |
| 1777859170 | 12.78° C | 54% | 996.1 hPa | 0 mm | - | 0 W/m² | - |
| 1777858867 | 12.78° C | 52% | 996.1 hPa | 0 mm | - | 0 W/m² | - |
| 1777858565 | 12.78° C | 53% | 996.2 hPa | 0 mm | - | 0 W/m² | - |
| 1777858261 | 13.33° C | 53% | 995.9 hPa | 0 mm | - | 0 W/m² | - |
| 1777857959 | 14.44° C | 48% | 996.1 hPa | 0 mm | - | 0 W/m² | - |
| 1777857657 | 14.44° C | 47% | 996.1 hPa | 0 mm | - | 0 W/m² | - |
| 1777857353 | 14.44° C | 47% | 996 hPa | 0 mm | - | 0 W/m² | - |
| 1777857049 | 15° C | 49% | 996 hPa | 0 mm | - | 0 W/m² | - |
| 1777856745 | 15.56° C | 44% | 996 hPa | 0 mm | - | 2 W/m² | - |
| 1777856441 | 15.56° C | 43% | 995.8 hPa | 0 mm | - | 3 W/m² | - |
| 1777856138 | 16.11° C | 45% | 995.9 hPa | 0 mm | - | 6 W/m² | - |
| 1777855836 | 16.67° C | 43% | 995.8 hPa | 0 mm | - | 9 W/m² | - |
| 1777855533 | 16.67° C | 42% | 995.8 hPa | 0 mm | - | 12 W/m² | - |
| 1777855230 | 17.22° C | 41% | 995.6 hPa | 0 mm | - | 16 W/m² | - |
| 1777854926 | 17.22° C | 39% | 995.8 hPa | 0 mm | - | 18 W/m² | - |
| 1777854623 | 17.78° C | 39% | 995.6 hPa | 0 mm | - | 21 W/m² | - |
| 1777854320 | 17.78° C | 39% | 995.7 hPa | 0 mm | - | 27 W/m² | - |
| 1777854018 | 17.78° C | 38% | 995.7 hPa | 0 mm | - | 38 W/m² | - |
| 1777853715 | 18.33° C | 39% | 995.6 hPa | 0 mm | - | 43 W/m² | - |
| 1777853411 | 18.33° C | 40% | 995.6 hPa | 0 mm | - | 45 W/m² | - |
| 1777853109 | 18.89° C | 40% | 995.5 hPa | 0 mm | - | 62 W/m² | - |
| 1777852806 | 18.89° C | 39% | 995.4 hPa | 0 mm | - | 75 W/m² | - |
| 1777852504 | 18.89° C | 39% | 995.6 hPa | 0 mm | - | 81 W/m² | - |
* Rain latest hour (hover to see other rain measurements)
** Current wind speed in m/s (hover to see current wind gust speed)